Regional Weather Roundup
Issued by NWS Newport/Morehead, NC

Current Version | Previous Version | Graphics & Text | Print | Product List | Glossary Off
Versions: 1 2 3 4 5 6 7 8 9 10 11 12 13 14 15 16 17 18 19 20 21 22 23 24 25 26 27 28 29 30 31 32 33 34 35 36 37 38 39 40 41 42 43 44 45 46 47 48 49 50

000
ASUS42 KMHX 221210
RWRMHX
WEATHER ROUNDUP FOR EASTERN NORTH CAROLINA
NATIONAL WEATHER SERVICE NEWPORT/MOREHEAD CITY NC
800 AM EDT TUE JUL 22 2014

NOTE: "FAIR" INDICATES FEW OR NO CLOUDS BELOW 12,000 FEET
WITH NO SIGNIFICANT WEATHER AND/OR OBSTRUCTIONS TO VISIBILITY

NCZ015>017-031-032-045>047-102-103-221300-
NORTH COAST

CITY           SKY/WX    TMP DP  RH WIND       PRES   REMARKS
EDENTON        PTSUNNY   74  72  93 NE5       30.16R
ELIZABETH CITY PTSUNNY   76  72  87 NE8       30.17R
KITTY HAWK     PTSUNNY   76  74  92 E6        30.15R
MANTEO         NOT AVBL

$$

NCZ045>047-081-094-103-104-221300-
CENTRAL COAST

CITY           SKY/WX    TMP DP  RH WIND       PRES   REMARKS
FRISCO         CLOUDY    76  75  97 E6        30.15R
SWANQUARTER      N/A     77 N/A N/A NE5       30.09S

$$

NCZ095-097-098-100-101-221300-
SOUTHERN COAST

CITY           SKY/WX    TMP DP  RH WIND       PRES   REMARKS
BEAUFORT       PTSUNNY   80  75  84 SE5       30.12R
CEDAR ISLAND     N/A     81 N/A N/A SE6       30.15S
JACKSONVILLE   PTSUNNY   78  75  90 NE3       30.12R
NEWPORT        NOT AVBL
PINEY ISLAND   PTSUNNY   78  76  93 SE7       30.12R
WILMINGTON     MOSUNNY   74  73  97 NE7       30.11R


$$

NCZ011>013-027>030-043-044-078>080-089-090>093-098-221300-
COASTAL PLAIN

CITY           SKY/WX    TMP DP  RH WIND       PRES   REMARKS
AHOSKIE        MOSUNNY   72  69  92 CALM      30.18R
CLINTON        CLOUDY    74  74  98 NE3       30.14R
ELIZABETHTOWN  FOG       74  74 100 CALM      30.13R VSB 3/4
GOLDSBORO      CLOUDY    73  73  99 NE8       30.14R FOG
GREENVILLE     CLOUDY    73  72  94 E6        30.17R
HAVELOCK       PTSUNNY   77  74  90 CALM      30.14R
KENANSVILLE    FOG       73  72  96 N5        30.15S VSB 1/2
KINSTON        CLOUDY    73  73 100 NE7       30.16R FOG
NEW BERN       CLOUDY    77  73  87 N5        30.14R
RICHLANDS      CLOUDY    73  72  94 N5        30.13S VSB 1/4
ROANOKE RAPIDS NOT AVBL
ROCKY MOUNT    CLOUDY    74  71  91 NE7       30.17R
WASHINGTON     CLOUDY    73  71  95 CALM      30.15R
WHITEVILLE     FOG       74  73  97 NE6       30.12R VSB 1/2

$$

AMZ130-135-150-152-154-156-158-170-250-252-270-ANZ085-086-088-633-658-670-221300-
MARINE OBSERVATIONS

STATION/POSITION TIME  TEMP    WIND        PRES    WAVE   SWELL
                       AIR SEA DIR/SP/G            HT/PER HT/PER
                 (UTC) (F)     (DEG/KT/KT) (MB)    (FT/S) (FT/S)
CHESAPEAKE LIGHT NOT AVBL
BUOY 44014       1200   76 77   70/  8/ 10 1021.4    3/ 8   3/ 8
DUCK             1200   76 74   90/ 11/ 13 1020.5
2E DUCK          1200                        N/A     2/ 8
OREGON INLET     1200   75 77   90/  7/  9 1021.2
BUOY 44095       1200      77                N/A     3/ 8
20E OREGON INLET 1100          100/ 10/ 12   N/A
HATTERAS CG      1200   76 80  110/  8/ 11 1021.0
DIAMOND BUOY     1200          VRB  8/ 10  1020.9    3/ 8   3/ 8
CAPE LOOKOUT     1100   78      CALM  /  1 1019.7
BEAUFORT LAB     1200   79 80  130/  4/  5 1019.6
30 SE NEW RIVER  1200   77 80  290/  8/ 10 1020.3    3/ 7   3/ 7
5 SE WRIGHTSVILL 1100   73 80                N/A
BUOY 41002       1058   81 82  190/ 12/ 14 1021.5    4/ 8   2/ 8
BUOY 41004       1200   81 82  220/ 10/ 17 1018.3    3/ 7   2/ 7

$$



USA.gov is the U.S. government's official web portal to all federal, state and local government web resources and services.